Starlink 3904

operational
NORAD ID: 52464 Int'l Des: 2022-049 Owner: SPXS Country: US Constellation: starlink
LEOCIRCULAR

Über Starlink 3904

Beschreibung wird geladen...

Live-Position

3D-Globus wird geladen...

Nächste Überflüge

Höhenverlauf

Altitude vs Time

uPlot chart will show altitude changes over time

Zweizeiliger Elementsatz

1 52464U 22049P 25258.33489772 .00000398 00000-0 43111-4 0 9997
2 52464 53.2175 126.3188 0001445 88.8742 271.2415 15.08838638185776
Epoch: 15. Sept. 2025 • Age: 22 hours

Aktueller Status

Höhe 558.1 km
Geschwindigkeit 7.58 km/s
Subsatellitenpunkt -50.35°S, 26.53°W
Startdatum 6. Mai 2022
Alter 3.3 years
Typ internet

Technische Details

Klassifizierung Payload
Masse 297.00 kg
Trockenmasse 220.00 kg
Gesamtmasse 297.00 kg
Länge 0.20 m
Durchmesser 2.80 m
Spannweite 9.00 m
Form Box + pan
Hersteller SPXS
Bus-Typ Starlink
Phasenstatus In Orbit
Besitzer/Staat SPXS/US

Große Konstellationen

Loading constellations...